ONEWEB-0083, 45435

Orbit data source: Space-Track

ONEWEB-0083, 45435 is a payload satellite owned by One Web (UK) in LEO that was launched on Sat, 21 Mar 2020 UTC via a SOYUZ-2-1B launch vehicle from the Tyuratam Missile And Space Complex (TTMTR). Payload-class satellites include a variety of spacecraft equipped with specific instruments for various scientific and technological missions. These include communications satellites like Starlink; space stations such as the ISS; scientific satellites like the Hubble; Earth observation satellites from companies like Planet Labs, Umbra, and HawkEye 360; GPS; miniature CubeSats for education and research; and military/defense satellites.

Loading next visibility...
Identifier
45435, 2020-020M
Orbit
LEO
Country
Flag of UKUK
Related business
Manufacturer
One Web
Mission
Operational Commercial Communications
Bus & Motor
ARROW, Unknown motor
Mass
148 kg wet, ~140 kg dry
Launch date (UTC)
2020-03-21 (6 years ago)
Launch vehicle
SOYUZ-2-1B
Launch site
Tyuratam Missile And Space Complex (TTMTR)
Object type
Payload
Rocket body
Debris
Shape & HBR
Trap Box + 2 Pan, 6.7 m
Radar Cross Section
3.464 m², Large (>1 m²)

Expand to show TLE details & history
Last TLE update: 16 hours ago

TLE from 16 hours ago
0 ONEWEB-0083
1 45435U 20020M   25286.84631935  .00000538  00000-0  14824-2 0  9994
2 45435  87.8818  70.1103 0001635  97.5889 262.5425 13.11417192270382
Epoch: 2025-10-13T20:18Z
TLE epoch observation values (Epoch: 2025-10-13T20:18:41.991Z)
Latitude
-0.00001°
Longitude
102.7921°
Altitude
1,220.732 km
Speed
7.244 km/s
True Right ascension
04h 40m 26s
True Declination
0° 00' 00"
Sunlit
Object was in full shadow at epoch
Visualization orbit readout
Latitude
Unknown
Longitude
Unknown
Altitude
Unknown
Speed
Unknown
Apparent Right ascension
Unknown
Apparent Declination
Unknown
Sunlit
N/A
Visualization observer readout
Local Sidereal Time
07:09:16
Azimuth
Unknown
Elevation
Unknown
Doppler factor
Unknown
Orbital elements
Apogee altitude
1,216.041 km
Perigee altitude
1,213.559 km
Semi-major axis
7,592.937 km
Eccentricity
0.00016
Inclination
87.8818°
RAAN
70.1103°
Arg. of periapsis
97.5889°
True anomaly
262.52392°
Mean anomaly
262.5425°
Eccentric anomaly
262.53321°
Mean motion
3.28041 °/min
Orbital period
109.74 mins
BSTAR
0.0014824
Loading maneuver chart data...
Computing Atmospheric mass density...
Loading historical data...
Loading historical data...
Loading historical data...
Loading historical data...
Loading historical data...
Loading historical data...
Loading historical data...

Documentation

Showing up to 5 results
|